�N����,����,�~����,�C��,���x,�C��,����,���ϕ���,�ő�u�ԕ���,�ő厞����,���˗�,�I�_���x,�n�����x,�ő啗���N��,DTYPE
"17/03/04","00:10",0.0,1.7,91.4,1012.8,325.3,2.8,4.5,333.5,0.00,0.5,6.2,"00:09:24",1
"17/03/04","00:20",0.0,1.7,91.0,1012.3,331.1,3.6,5.6,333.4,0.00,0.4,6.1,"00:19:16",1
"17/03/04","00:30",0.0,1.7,90.4,1012.8,325.5,3.5,4.5,337.1,0.00,0.3,6.0,"00:21:00",1
"17/03/04","00:40",0.0,1.8,90.2,1013.0,312.8,3.2,5.1,320.2,0.00,0.4,5.9,"00:30:32",1
"17/03/04","00:50",0.0,1.6,90.0,1013.0,307.1,2.6,4.1,317.5,0.00,0.2,6.2,"00:49:40",1
"17/03/04","01:00",0.0,1.5,90.0,1013.0,315.9,2.7,4.9,323.7,0.00,0.1,5.9,"00:56:00",1
"17/03/04","01:10",0.0,1.4,90.3,1013.0,303.6,2.6,4.0,316.9,0.00,0.0,5.7,"01:03:48",1
"17/03/04","01:20",0.0,1.3,90.3,1013.3,294.7,2.1,2.9,313.2,0.00,-0.1,6.0,"01:11:32",1
"17/03/04","01:30",0.0,1.0,90.5,1013.3,280.2,1.3,1.6,279.6,0.00,-0.3,5.9,"01:24:42",1
"17/03/04","01:40",0.0,0.9,91.3,1013.0,294.8,1.8,2.6,299.6,0.00,-0.3,5.7,"01:32:38",1
"17/03/04","01:50",0.0,0.6,91.4,1013.0,309.9,2.2,2.9,320.9,0.00,-0.6,5.7,"01:46:32",1
"17/03/04","02:00",0.0,0.2,92.3,1012.8,307.8,2.0,2.8,317.6,0.00,-0.9,5.7,"01:52:24",1
"17/03/04","02:10",0.0,0.0,93.3,1012.8,306.6,1.7,2.5,322.7,0.00,-0.9,5.7,"02:06:56",1
"17/03/04","02:20",0.0,0.0,94.0,1012.6,314.8,2.1,2.6,321.2,0.00,-0.8,5.7,"02:10:08",1
"17/03/04","02:30",0.0,0.0,94.5,1012.6,276.6,1.5,1.9,293.4,0.00,-0.7,5.7,"02:24:24",1
"17/03/04","02:40",0.0,0.1,94.8,1012.6,284.1,1.8,2.7,307.7,0.00,-0.6,5.6,"02:35:52",1
"17/03/04","02:50",0.0,0.1,95.1,1012.3,302.2,1.7,2.5,311.5,0.00,-0.5,5.4,"02:41:52",1
"17/03/04","03:00",0.0,0.0,95.3,1012.1,295.7,1.7,2.4,315.3,0.00,-0.6,5.5,"02:52:00",1
"17/03/04","03:10",0.0,0.1,95.4,1012.3,285.3,1.7,2.4,309.9,0.00,-0.5,5.6,"03:06:56",1
"17/03/04","03:20",0.0,0.1,95.6,1011.9,295.1,1.7,2.4,310.0,0.00,-0.5,5.2,"03:18:48",1
"17/03/04","03:30",0.0,0.1,95.6,1012.3,316.9,2.1,2.8,325.7,0.00,-0.5,5.5,"03:29:04",1
"17/03/04","03:40",0.0,0.0,95.9,1012.1,289.5,1.2,1.9,315.0,0.00,-0.5,5.6,"03:31:28",1
"17/03/04","03:50",0.0,0.0,96.0,1012.1,306.5,1.3,2.5,327.2,0.00,-0.5,5.1,"03:49:12",1
"17/03/04","04:00",0.0,-0.2,95.7,1012.1,321.6,2.2,2.9,318.0,0.00,-0.8,5.1,"03:51:20",1
"17/03/04","04:10",0.0,-0.3,96.2,1012.3,316.2,2.0,2.5,328.5,0.00,-0.8,5.3,"04:03:20",1
"17/03/04","04:20",0.0,-0.1,96.8,1012.6,298.8,1.8,2.8,302.1,0.00,-0.5,5.1,"04:16:32",1
"17/03/04","04:30",0.0,0.2,96.9,1012.6,315.2,2.0,2.6,316.7,0.00,-0.2,5.0,"04:21:20",1
"17/03/04","04:40",0.0,0.0,96.6,1012.8,288.0,1.0,1.9,312.7,0.00,-0.4,5.2,"04:30:08",1
"17/03/04","04:50",0.0,-0.2,96.8,1012.8,297.8,1.3,1.6,296.0,0.00,-0.6,5.1,"04:41:20",1
"17/03/04","05:00",0.0,-0.2,97.2,1013.0,319.9,2.1,2.6,322.9,0.00,-0.5,5.2,"04:55:08",1
"17/03/04","05:10",0.0,-0.2,97.2,1012.8,302.9,1.5,2.0,326.1,0.00,-0.5,5.3,"05:00:48",1
"17/03/04","05:20",0.0,-0.2,97.7,1013.0,321.3,2.2,2.7,321.5,0.00,-0.5,5.2,"05:12:48",1
"17/03/04","05:30",0.0,0.0,97.8,1013.3,297.9,1.6,2.4,319.6,0.00,-0.3,5.1,"05:21:36",1
"17/03/04","05:40",0.0,0.1,97.9,1013.0,285.0,1.5,1.7,291.2,0.00,-0.2,5.1,"05:31:52",1
"17/03/04","05:50",0.0,0.3,98.0,1013.5,312.8,1.6,2.2,328.6,0.00,0.1,5.1,"05:45:36",1
"17/03/04","06:00",0.0,0.3,96.5,1013.8,313.5,2.1,2.9,319.4,0.00,-0.2,5.2,"05:52:20",1
"17/03/04","06:10",0.0,-0.1,97.6,1013.5,294.4,1.0,1.8,320.6,0.00,-0.4,4.9,"06:00:02",1
"17/03/04","06:20",0.0,-0.1,97.5,1013.3,321.5,2.0,2.8,321.1,0.00,-0.4,5.1,"06:16:18",1
"17/03/04","06:30",0.0,-0.3,97.7,1013.5,315.1,1.8,2.6,322.5,0.00,-0.6,5.0,"06:20:08",1
"17/03/04","06:40",0.0,-0.5,97.8,1013.5,307.3,1.2,1.6,315.6,0.00,-0.8,5.1,"06:30:08",1
"17/03/04","06:50",0.0,-0.5,98.2,1013.5,324.7,1.6,1.9,332.7,0.00,-0.7,4.9,"06:40:56",1
"17/03/04","07:00",0.0,-0.1,96.9,1013.8,304.4,1.1,1.6,322.4,0.00,-0.5,5.0,"06:51:28",1
"17/03/04","07:10",0.0,-0.5,98.0,1013.8,303.8,1.2,2.1,321.6,0.00,-0.7,5.1,"07:09:36",1
"17/03/04","07:20",0.0,0.0,97.1,1013.5,310.8,1.6,2.4,321.3,0.00,-0.4,5.0,"07:11:04",1
"17/03/04","07:30",0.0,0.1,98.3,1013.8,265.6,0.3,0.9,270.8,0.02,-0.1,5.0,"07:20:32",1
"17/03/04","07:40",0.0,1.0,97.1,1014.0,288.4,0.8,2.0,309.9,0.03,0.6,5.1,"07:39:52",1
"17/03/04","07:50",0.0,1.1,97.2,1014.0,298.6,1.7,2.1,306.8,0.03,0.7,5.0,"07:45:04",1
"17/03/04","08:00",0.0,1.5,96.2,1014.0,312.4,2.3,3.3,326.3,0.02,1.0,5.0,"07:59:52",1
"17/03/04","08:10",0.0,2.0,95.7,1013.8,307.3,2.3,3.1,324.3,0.05,1.4,5.2,"08:00:08",1
"17/03/04","08:20",0.0,3.4,90.7,1014.5,273.3,0.8,1.3,300.1,0.07,2.1,5.3,"08:10:08",1
"17/03/04","08:30",0.0,4.4,86.1,1014.5,258.8,0.7,1.0,266.2,0.10,2.3,5.5,"08:28:08",1
"17/03/04","08:40",0.0,4.9,84.6,1014.9,267.2,0.5,1.0,283.2,0.14,2.6,5.4,"08:35:40",1
"17/03/04","08:50",0.0,5.4,80.0,1015.4,262.0,0.5,1.3,274.0,0.19,2.3,5.5,"08:49:56",1
"17/03/04","09:00",0.0,5.9,77.7,1015.6,256.3,0.7,1.4,254.6,0.23,2.3,5.6,"08:54:48",1
"17/03/04","09:10",0.0,6.6,75.5,1015.6,293.6,0.5,1.2,308.8,0.23,2.6,6.0,"09:03:38",1
"17/03/04","09:20",0.0,7.0,73.6,1016.6,255.2,0.5,1.1,123.3,0.25,2.7,6.1,"09:13:04",1
"17/03/04","09:30",0.0,7.6,72.1,1016.4,200.0,0.5,1.1,104.7,0.31,2.9,6.3,"09:26:32",1
"17/03/04","09:40",0.0,7.8,67.9,1016.6,154.9,0.8,2.5,117.7,0.36,2.3,6.8,"09:36:32",1
"17/03/04","09:50",0.0,7.4,68.2,1016.4,199.3,1.0,1.9,150.8,0.18,2.0,6.8,"09:40:48",1
"17/03/04","10:00",0.0,8.5,67.6,1016.4,281.5,0.7,1.8,120.1,0.29,2.9,7.1,"09:59:36",1
"17/03/04","10:10",0.0,9.0,64.1,1016.1,207.3,1.0,2.4,234.0,0.40,2.6,7.1,"10:09:28",1
"17/03/04","10:20",0.0,9.3,61.5,1015.6,199.3,1.1,2.1,124.0,0.44,2.3,7.3,"10:17:28",1
"17/03/04","10:30",0.0,10.1,60.1,1015.2,182.7,0.8,2.4,141.9,0.46,2.8,7.6,"10:29:36",1
"17/03/04","10:40",0.0,10.1,59.2,1015.4,333.4,1.1,2.2,100.7,0.47,2.5,7.8,"10:39:28",1
"17/03/04","10:50",0.0,10.4,56.4,1015.2,87.6,0.8,2.6,111.3,0.47,2.1,8.4,"10:40:08",1
"17/03/04","11:00",0.0,10.9,55.5,1014.9,208.3,1.3,2.8,194.9,0.49,2.4,8.5,"10:52:16",1
"17/03/04","11:10",0.0,11.3,54.6,1014.7,173.4,1.2,3.7,129.5,0.50,2.5,8.7,"11:03:52",1
"17/03/04","11:20",0.0,11.4,55.6,1014.2,191.4,2.0,3.9,204.8,0.53,2.9,9.2,"11:17:12",1
"17/03/04","11:30",0.0,11.4,53.4,1014.0,153.1,1.7,3.2,138.9,0.53,2.3,9.2,"11:26:40",1
"17/03/04","11:40",0.0,11.8,53.9,1013.5,174.1,1.7,3.1,170.2,0.54,2.8,9.5,"11:30:48",1
"17/03/04","11:50",0.0,12.1,54.0,1013.3,187.0,2.1,3.5,198.8,0.54,3.1,9.8,"11:49:12",1
"17/03/04","12:00",0.0,12.4,54.0,1013.3,169.9,1.6,3.9,162.6,0.55,3.4,10.0,"11:56:24",1
"17/03/04","12:10",0.0,12.8,52.0,1013.3,163.3,1.8,3.9,126.6,0.48,3.2,10.2,"12:08:00",1
"17/03/04","12:20",0.0,13.1,51.4,1013.3,153.7,1.8,3.6,130.7,0.51,3.4,10.3,"12:11:28",1
"17/03/04","12:30",0.0,13.4,53.2,1013.3,191.1,2.1,4.0,192.1,0.57,4.1,10.5,"12:28:56",1
"17/03/04","12:40",0.0,13.8,50.5,1013.0,172.1,2.0,3.9,140.5,0.57,3.7,10.9,"12:34:24",1
"17/03/04","12:50",0.0,14.1,49.3,1012.8,175.6,2.1,4.0,143.4,0.52,3.7,11.2,"12:44:40",1
"17/03/04","13:00",0.0,14.0,50.9,1012.1,151.8,1.7,4.0,112.4,0.51,4.0,11.2,"12:59:52",1
"17/03/04","13:10",0.0,13.7,49.1,1012.3,151.5,2.0,3.6,157.5,0.39,3.3,11.2,"13:03:04",1
"17/03/04","13:20",0.0,13.4,48.8,1012.3,162.3,1.8,3.5,194.5,0.31,2.9,11.5,"13:15:36",1
"17/03/04","13:30",0.0,14.1,47.5,1012.1,173.7,2.0,3.5,179.6,0.44,3.2,11.6,"13:24:00",1
"17/03/04","13:40",0.0,14.9,44.6,1011.6,194.1,1.8,4.0,174.7,0.45,3.0,11.8,"13:39:28",1
"17/03/04","13:50",0.0,14.4,44.8,1011.6,175.1,1.6,3.6,176.3,0.38,2.6,11.9,"13:45:44",1
"17/03/04","14:00",0.0,14.3,45.3,1011.4,127.9,1.7,4.0,115.4,0.38,2.7,11.8,"13:52:40",1
"17/03/04","14:10",0.0,14.3,43.1,1011.4,130.3,2.2,4.9,123.7,0.34,2.0,12.0,"14:05:36",1
"17/03/04","14:20",0.0,14.6,43.6,1011.2,149.2,2.1,4.9,128.9,0.34,2.4,11.9,"14:17:12",1
"17/03/04","14:30",0.0,14.8,41.3,1010.9,107.6,1.1,2.7,113.5,0.33,1.8,11.9,"14:28:56",1
"17/03/04","14:40",0.0,15.4,41.9,1011.2,129.9,1.3,3.2,127.1,0.38,2.6,12.2,"14:35:52",1
"17/03/04","14:50",0.0,15.3,40.4,1011.2,51.5,1.0,2.2,109.0,0.32,2.0,12.1,"14:40:02",1
"17/03/04","15:00",0.0,15.3,36.9,1010.7,143.9,1.2,3.3,113.5,0.32,0.7,12.1,"14:59:12",1
"17/03/04","15:10",0.0,15.8,38.2,1010.7,5.0,1.3,3.7,111.4,0.34,1.6,12.1,"15:08:40",1
"17/03/04","15:20",0.0,15.9,36.3,1010.7,125.2,1.7,4.0,118.1,0.37,1.0,12.3,"15:19:52",1
"17/03/04","15:30",0.0,15.7,37.4,1010.4,136.0,1.7,4.4,123.1,0.33,1.3,12.2,"15:20:48",1
"17/03/04","15:40",0.0,15.5,36.3,1010.7,218.0,1.8,4.0,227.2,0.20,0.7,12.2,"15:36:40",1
"17/03/04","15:50",0.0,15.7,36.5,1010.4,241.7,1.5,3.5,231.0,0.25,0.9,12.2,"15:42:24",1
"17/03/04","16:00",0.0,15.6,36.9,1010.9,258.4,1.6,3.2,224.6,0.21,1.0,12.2,"15:59:12",1
"17/03/04","16:10",0.0,15.0,40.1,1010.7,257.6,1.7,3.7,236.4,0.09,1.6,12.2,"16:02:56",1
"17/03/04","16:20",0.0,14.6,39.7,1010.7,222.0,1.3,2.6,146.2,0.05,1.1,12.3,"16:13:36",1
"17/03/04","16:30",0.0,14.5,38.7,1010.9,234.5,1.5,3.3,207.8,0.06,0.7,12.0,"16:22:40",1
"17/03/04","16:40",0.0,14.5,37.4,1011.2,231.3,1.8,2.8,236.8,0.08,0.2,12.2,"16:33:28",1
"17/03/04","16:50",0.0,14.5,37.7,1011.2,230.5,1.7,3.1,235.0,0.07,0.3,11.8,"16:45:52",1
"17/03/04","17:00",0.0,14.6,37.2,1010.9,231.4,1.5,2.8,239.2,0.07,0.2,11.8,"16:59:20",1
"17/03/04","17:10",0.0,14.4,37.5,1011.2,232.4,1.1,1.9,235.6,0.04,0.1,11.8,"17:00:16",1
"17/03/04","17:20",0.0,14.4,40.2,1010.9,288.0,1.1,2.0,318.5,0.04,1.1,11.6,"17:13:28",1
"17/03/04","17:30",0.0,14.4,39.8,1010.9,290.1,1.3,2.5,303.2,0.04,1.0,11.4,"17:27:12",1
"17/03/04","17:40",0.0,13.8,42.6,1011.2,208.8,0.7,2.0,188.4,0.01,1.4,11.4,"17:39:52",1
"17/03/04","17:50",0.0,13.2,43.8,1011.2,221.7,1.1,2.8,235.9,0.01,1.2,11.2,"17:49:52",1
"17/03/04","18:00",0.0,12.6,47.7,1011.2,279.7,1.3,2.4,305.4,0.00,1.8,11.3,"17:59:36",1
"17/03/04","18:10",0.0,12.0,51.9,1010.9,303.4,1.7,2.2,311.2,0.00,2.5,11.0,"18:00:08",1
"17/03/04","18:20",0.0,11.2,54.7,1011.2,315.6,1.7,2.7,332.0,0.00,2.5,10.9,"18:12:32",1
"17/03/04","18:30",0.0,10.5,58.1,1011.4,306.5,1.1,1.8,299.1,0.00,2.7,10.8,"18:26:42",1
"17/03/04","18:40",0.0,9.8,60.0,1011.6,318.4,1.6,2.1,329.9,0.00,2.5,10.7,"18:32:54",1
"17/03/04","18:50",0.0,9.2,62.3,1011.6,318.7,1.7,2.2,324.1,0.00,2.4,10.3,"18:41:36",1
"17/03/04","19:00",0.0,8.7,64.6,1011.4,310.6,1.8,2.4,319.3,0.00,2.4,10.5,"18:54:48",1
"17/03/04","19:10",0.0,8.6,66.0,1011.9,321.3,2.7,3.9,341.5,0.00,2.7,10.4,"19:07:20",1
"17/03/04","19:20",0.0,8.7,65.1,1011.6,315.8,2.6,3.5,319.7,0.00,2.6,10.0,"19:10:24",1
"17/03/04","19:30",0.0,8.3,65.0,1012.1,303.4,2.2,3.6,311.5,0.00,2.2,9.8,"19:23:44",1
"17/03/04","19:40",0.0,8.1,65.9,1011.9,311.2,2.0,2.8,341.9,0.00,2.2,9.8,"19:38:40",1
"17/03/04","19:50",0.0,7.9,66.9,1011.9,292.6,2.3,3.2,304.9,0.00,2.2,9.7,"19:45:20",1
"17/03/04","20:00",0.0,7.5,67.8,1011.9,301.8,2.1,2.9,318.9,0.00,2.0,9.7,"19:51:52",1
"17/03/04","20:10",0.0,7.2,69.8,1012.1,290.8,2.2,3.1,310.1,0.00,2.1,9.4,"20:09:04",1
"17/03/04","20:20",0.0,6.9,71.0,1011.9,294.8,2.0,2.7,300.8,0.00,2.1,9.5,"20:11:12",1
"17/03/04","20:30",0.0,6.5,72.4,1011.6,296.9,2.0,2.6,320.2,0.00,1.9,9.4,"20:23:28",1
"17/03/04","20:40",0.0,6.3,73.6,1012.1,292.9,2.0,2.5,316.6,0.00,2.0,9.2,"20:37:20",1
"17/03/04","20:50",0.0,6.5,74.3,1012.3,279.1,2.1,2.9,299.9,0.00,2.3,8.9,"20:40:40",1
"17/03/04","21:00",0.0,6.7,73.6,1012.3,289.1,2.6,3.6,306.8,0.00,2.4,8.9,"20:59:44",1
"17/03/04","21:10",0.0,6.6,74.3,1012.1,295.1,2.8,5.1,317.3,0.00,2.4,9.0,"21:06:24",1
"17/03/04","21:20",0.0,6.7,74.2,1012.6,293.3,3.2,5.4,324.8,0.00,2.5,8.9,"21:14:48",1
"17/03/04","21:30",0.0,6.2,74.8,1012.3,287.2,2.3,3.3,316.7,0.00,2.1,8.7,"21:22:08",1
"17/03/04","21:40",0.0,6.4,76.0,1012.3,312.9,3.5,4.7,327.1,0.00,2.5,8.8,"21:34:40",1
"17/03/04","21:50",0.0,6.7,74.8,1012.6,309.3,3.4,5.4,325.1,0.00,2.6,8.6,"21:41:12",1
"17/03/04","22:00",0.0,6.2,74.6,1012.3,291.9,1.8,3.3,317.9,0.00,2.1,8.4,"21:51:20",1
"17/03/04","22:10",0.0,6.2,77.0,1012.6,313.2,3.9,5.6,331.7,0.00,2.5,8.6,"22:03:52",1
"17/03/04","22:20",0.0,6.2,76.0,1012.6,307.0,3.4,4.5,328.9,0.00,2.3,8.3,"22:13:44",1
"17/03/04","22:30",0.0,6.2,76.1,1012.3,316.9,4.0,5.1,316.6,0.00,2.3,8.2,"22:25:20",1
"17/03/04","22:40",0.0,6.2,75.8,1012.3,315.4,4.0,5.6,325.9,0.00,2.3,8.1,"22:32:32",1
"17/03/04","22:50",0.0,6.2,75.8,1012.3,316.1,4.0,6.3,324.0,0.00,2.3,8.1,"22:48:56",1
"17/03/04","23:00",0.0,6.2,75.5,1012.3,320.5,4.2,5.9,325.1,0.00,2.2,8.0,"22:59:20",1
"17/03/04","23:10",0.0,6.1,75.9,1012.3,318.6,4.4,6.2,317.8,0.00,2.2,8.0,"23:08:00",1
"17/03/04","23:20",0.0,5.9,76.3,1012.3,309.7,3.5,4.9,305.1,0.00,2.1,8.0,"23:10:40",1
"17/03/04","23:30",0.0,6.1,75.7,1012.3,309.8,4.2,6.8,324.5,0.00,2.2,8.0,"23:24:56",1
"17/03/04","23:40",0.0,6.1,74.9,1012.3,304.1,3.9,5.6,321.6,0.00,2.0,7.7,"23:31:04",1
"17/03/04","23:50",0.0,6.1,75.0,1012.1,309.4,4.1,5.4,316.2,0.00,2.0,7.9,"23:42:08",1
"17/03/04","24:00",0.0,5.6,76.3,1012.3,322.7,4.4,6.5,311.6,0.00,1.8,7.5,"23:51:36",1
